QPF
0.04 0.05 0.04 0.03 0.03 0.03 0.02 0.02 0.02 0.02 0.03 0.02 0.02 0.02 0.02 0.02 0.02 0.02 0.02 0.03 0.04 0.02 0.02 0.02 0.03 0.03 0.03 0.04 0.03 0.03 0.02 0.03 0.03 0.03 0.02 0.04 0.05 0.05 0.03 0.02 0.03 0.05 0.05
0.02 0.03 0.03 0.03 0.02 0.02 0.02 0.03 0.02 0.02 0.03 0.03 0.02 0.02 0.02 0.02 0.01 0.01 0.02 0.04 0.04 0.02 0.02 0.03 0.03 0.02 0.03 0.03 0.03 0.03 0.03 0.03 0.04 0.05 0.03 0.05 0.05 0.07 0.06 0.04 0.04 0.04 0.05
0.02 0.02 0.02 0.02 0.04 0.04 0.04 0.06 0.03 0.03 0.03 0.03 0.02 0.03 0.02 0.02 0.01 0.01 0.01 0.02 0.04 0.04 0.02 0.02 0.02 0.02 0.02 0.02 0.02 0.02 0.03 0.03 0.02 0.04 0.04 0.05 0.04 0.05 0.06 0.06 0.05 0.04 0.05
0.02 0.03 0.03 0.03 0.07 0.06 0.02 0.03 0.04 0.03 0.03 0.03 0.03 0.03 0.02 0.02 0.02 0.01 0.01 0.02 0.04 0.03 0.01 0.01 0.01 0.01 0.01 0.01 0.02 0.02 0.02 0.03 0.02 0.03 0.03 0.05 0.05 0.04 0.04 0.06 0.07 0.06 0.06
0.02 0.03 0.03 0.02 0.02 0.02 0.02 0.02 0.03 0.03 0.03 0.02 0.02 0.02 0.03 0.02 0.02 0.02 0.02 0.02 0.03 0.02 0.02 0.02 0.02 0.02 0.02 0.02 0.02 0.02 0.01 0.02 0.01 0.02 0.03 0.04 0.06 0.05 0.03 0.04 0.09 0.06 0.08
0.02 0.02 0.03 0.02 0.02 0.02 0.02 0.01 0.03 0.04 0.03 0.01 0.02 0.01 0.02 0.02 0.02 0.03 0.03 0.02 0.02 0.03 0.03 0.03 0.03 0.04 0.03 0.03 0.03 0.02 0.01 0.01 0.01 0.02 0.03 0.04 0.04 0.06 0.05 0.05 0.05 0.06 0.11
0.02 0.01 0.02 0.02 0.01 0.02 0.01 0.01 0.03 0.02 0.01 0.01 0.01 0.01 0.01 0.01 0.02 0.03 0.03 0.02 0.02 0.03 0.04 0.05 0.06 0.07 0.07 0.05 0.04 0.02 0.02 0.01 0.01 0.01 0.02 0.03 0.04 0.04 0.05 0.06 0.06 0.05 0.08
0.01 0.01 0.01 0.01 0.02 0.02 0.03 0.03 0.03 0.03 0.02 0.01 0.01 0.01 0.01 0.02 0.03 0.04 0.03 0.02 0.03 0.04 0.05 0.07 0.10 0.14 0.13 0.07 0.04 0.03 0.03 0.02 0.02 0.01 0.01 0.02 0.04 0.05 0.05 0.07 0.08 0.06 0.06
0.01 0.01 0.01 0.01 0.03 0.04 0.11 0.09 0.02 0.02 0.02 0.01 0.01 0.01 0.03 0.03 0.04 0.03 0.03 0.03 0.04 0.05 0.07 0.10 0.14 0.14 0.09 0.06 0.05 0.03 0.03 0.02 0.02 0.01 0.01 0.02 0.03 0.06 0.07 0.09 0.09 0.09 0.07
0.02 0.01 0.01 0.01 0.01 0.02 0.03 0.02 0.02 0.02 0.03 0.03 0.02 0.03 0.04 0.04 0.04 0.04 0.03 0.04 0.04 0.05 0.10 0.12 0.11 0.10 0.07 0.06 0.05 0.04 0.04 0.03 0.02 0.02 0.02 0.02 0.03 0.05 0.08 0.09 0.09 0.08 0.08
0.05 0.05 0.04 0.02 0.02 0.01 0.01 0.01 0.02 0.03 0.03 0.03 0.06 0.08 0.08 0.07 0.07 0.05 0.04 0.03 0.03 0.04 0.07 0.08 0.09 0.07 0.05 0.05 0.05 0.05 0.04 0.04 0.03 0.03 0.02 0.02 0.02 0.04 0.08 0.09 0.08 0.06 0.06
0.07 0.13 0.09 0.03 0.02 0.02 0.02 0.02 0.02 0.02 0.02 0.03 0.04 0.06 0.07 0.07 0.07 0.05 0.04 0.03 0.02 0.04 0.05 0.03 0.04 0.07 0.05 0.05 0.05 0.05 0.04 0.04 0.03 0.03 0.02 0.02 0.03 0.05 0.06 0.08 0.07 0.06 0.06
0.16 0.15 0.05 0.01 0.02 0.02 0.02 0.01 0.01 0.01 0.01 0.01 0.02 0.03 0.04 0.04 0.03 0.02 0.02 0.02 0.02 0.02 0.02 0.02 0.02 0.02 0.03 0.04 0.05 0.06 0.06 0.05 0.05 0.05 0.03 0.03 0.03 0.04 0.05 0.05 0.05 0.05 0.06
0.04 0.10 0.12 0.03 0.01 0.01 0.01 0.01 0.01 0.01 0.01 0.01 0.01 0.01 0.02 0.01 0.01 0.01 0.00 0.00 0.01 0.01 0.01 0.02 0.02 0.02 0.02 0.03 0.05 0.07 0.09 0.08 0.07 0.05 0.04 0.03 0.02 0.03 0.04 0.05 0.04 0.04 0.06
0.02 0.03 0.03 0.02 0.01 0.01 0.01 0.01 0.01 0.01 0.01 0.01 0.01 0.01 0.02 0.02 0.02 0.01 0.01 0.01 0.00 0.00 0.01 0.01 0.01 0.01 0.01 0.02 0.03 0.05 0.05 0.06 0.06 0.05 0.04 0.05 0.05 0.06 0.06 0.05 0.03 0.03 0.04
0.02 0.02 0.02 0.01 0.02 0.02 0.01 0.01 0.01 0.01 0.01 0.01 0.02 0.02 0.03 0.03 0.02 0.01 0.00 0.00 0.00 0.00 0.00 0.01 0.01 0.01 0.01 0.03 0.04 0.04 0.04 0.05 0.07 0.07 0.05 0.05 0.06 0.08 0.09 0.09 0.07 0.07 0.05
0.02 0.01 0.02 0.02 0.02 0.02 0.02 0.02 0.02 0.01 0.02 0.02 0.02 0.02 0.01 0.01 0.00 0.00 0.01 0.01 0.01 0.01 0.01 0.01 0.01 0.01 0.02 0.04 0.04 0.04 0.04 0.06 0.07 0.05 0.04 0.03 0.04 0.06 0.06 0.07 0.07 0.06 0.05
0.02 0.02 0.03 0.03 0.03 0.03 0.03 0.02 0.02 0.02 0.02 0.03 0.03 0.02 0.01 0.01 0.01 0.01 0.01 0.01 0.01 0.01 0.01 0.01 0.01 0.01 0.02 0.02 0.02 0.02 0.02 0.03 0.05 0.03 0.02 0.03 0.03 0.04 0.04 0.04 0.04 0.03 0.03
0.04 0.03 0.02 0.03 0.02 0.02 0.02 0.02 0.02 0.02 0.02 0.02 0.01 0.01 0.01 0.01 0.01 0.01 0.01 0.01 0.01 0.01 0.01 0.01 0.01 0.01 0.01 0.01 0.01 0.01 0.01 0.01 0.01 0.00 0.01 0.01 0.02 0.02 0.03 0.03 0.03 0.02 0.02
0.04 0.02 0.02 0.02 0.02 0.02 0.02 0.03 0.02 0.02 0.01 0.01 0.02 0.02 0.02 0.02 0.02 0.02 0.02 0.02 0.02 0.01 0.01 0.01 0.01 0.01 0.01 0.01 0.02 0.01 0.01 0.00 0.00 0.00 0.01 0.01 0.01 0.02 0.03 0.03 0.03 0.02 0.02
0.04 0.04 0.03 0.03 0.02 0.01 0.02 0.02 0.02 0.02 0.03 0.04 0.03 0.03 0.03 0.04 0.03 0.03 0.03 0.02 0.02 0.01 0.00 0.00 0.00 0.01 0.01 0.01 0.01 0.01 0.01 0.01 0.00 0.00 0.00 0.00 0.01 0.01 0.02 0.03 0.03 0.04 0.06
0.01 0.03 0.05 0.04 0.03 0.02 0.02 0.02 0.02 0.03 0.04 0.04 0.04 0.04 0.04 0.04 0.04 0.03 0.03 0.02 0.01 0.01 0.00 0.00 0.00 0.00 0.00 0.01 0.01 0.01 0.01 0.01 0.01 0.00 0.00 0.00 0.01 0.01 0.02 0.03 0.04 0.07 0.09
0.01 0.01 0.03 0.05 0.04 0.03 0.03 0.03 0.04 0.03 0.03 0.03 0.03 0.04 0.04 0.04 0.03 0.03 0.03 0.02 0.01 0.01 0.01 0.01 0.00 0.00 0.00 0.01 0.01 0.01 0.01 0.01 0.01 0.01 0.01 0.01 0.01 0.01 0.02 0.04 0.06 0.06 0.04
0.02 0.02 0.03 0.03 0.04 0.05 0.04 0.04 0.04 0.04 0.03 0.03 0.02 0.02 0.02 0.02 0.01 0.02 0.01 0.01 0.01 0.01 0.01 0.01 0.00 0.00 0.00 0.01 0.01 0.01 0.01 0.01 0.02 0.02 0.02 0.01 0.01 0.01 0.01 0.03 0.04 0.04 0.03
0.03 0.03 0.04 0.04 0.04 0.04 0.04 0.04 0.05 0.04 0.03 0.03 0.03 0.02 0.02 0.01 0.01 0.01 0.01 0.01 0.01 0.01 0.02 0.01 0.01 0.01 0.01 0.01 0.01 0.01 0.02 0.02 0.03 0.04 0.04 0.03 0.02 0.01 0.02 0.02 0.03 0.04 0.04
0.03 0.03 0.03 0.04 0.04 0.04 0.04 0.04 0.05 0.04 0.03 0.03 0.04 0.03 0.02 0.01 0.01 0.01 0.01 0.01 0.01 0.01 0.02 0.03 0.02 0.02 0.01 0.02 0.03 0.03 0.03 0.04 0.04 0.04 0.03 0.03 0.03 0.02 0.02 0.02 0.02 0.02 0.03
MSLP
1010.64 1010.89 1011.08 1011.20 1011.27 1011.30 1011.35 1011.47 1011.67 1011.99 1012.38 1012.83 1013.28 1013.68 1013.98 1014.17 1014.24 1014.22 1014.16 1014.10 1014.09 1014.15 1014.29 1014.52 1014.80 1015.12 1015.44 1015.76 1016.07 1016.36 1016.65 1016.94 1017.24 1017.54 1017.84 1018.11 1018.35 1018.54 1018.67 1018.76 1018.81 1018.85 1018.87
1010.46 1010.77 1011.01 1011.16 1011.23 1011.25 1011.28 1011.37 1011.58 1011.90 1012.34 1012.85 1013.36 1013.81 1014.15 1014.35 1014.41 1014.35 1014.25 1014.14 1014.09 1014.13 1014.28 1014.52 1014.84 1015.20 1015.56 1015.90 1016.21 1016.49 1016.75 1017.02 1017.29 1017.59 1017.90 1018.22 1018.52 1018.79 1019.02 1019.21 1019.36 1019.47 1019.56
1010.15 1010.53 1010.84 1011.05 1011.14 1011.16 1011.18 1011.25 1011.44 1011.76 1012.22 1012.77 1013.33 1013.83 1014.22 1014.44 1014.51 1014.45 1014.32 1014.19 1014.11 1014.13 1014.28 1014.53 1014.86 1015.23 1015.59 1015.93 1016.22 1016.47 1016.69 1016.92 1017.17 1017.46 1017.78 1018.14 1018.51 1018.87 1019.21 1019.51 1019.78 1019.99 1020.16
1009.79 1010.25 1010.64 1010.91 1011.05 1011.10 1011.11 1011.17 1011.34 1011.65 1012.12 1012.68 1013.28 1013.83 1014.26 1014.53 1014.63 1014.59 1014.47 1014.33 1014.24 1014.24 1014.36 1014.60 1014.91 1015.25 1015.59 1015.89 1016.13 1016.34 1016.51 1016.69 1016.90 1017.17 1017.50 1017.89 1018.32 1018.77 1019.21 1019.63 1020.01 1020.34 1020.61
1009.47 1010.00 1010.48 1010.83 1011.04 1011.12 1011.14 1011.19 1011.34 1011.64 1012.09 1012.66 1013.28 1013.87 1014.35 1014.67 1014.83 1014.83 1014.73 1014.60 1014.51 1014.49 1014.58 1014.77 1015.03 1015.32 1015.60 1015.83 1016.01 1016.15 1016.26 1016.39 1016.56 1016.80 1017.12 1017.52 1018.00 1018.51 1019.04 1019.57 1020.05 1020.49 1020.86
1009.25 1009.85 1010.41 1010.85 1011.12 1011.25 1011.29 1011.34 1011.47 1011.75 1012.18 1012.74 1013.36 1013.98 1014.50 1014.88 1015.09 1015.15 1015.10 1014.99 1014.90 1014.86 1014.91 1015.04 1015.23 1015.44 1015.64 1015.80 1015.91 1015.97 1016.02 1016.08 1016.20 1016.41 1016.71 1017.12 1017.61 1018.17 1018.76 1019.36 1019.93 1020.46 1020.93
1009.16 1009.82 1010.46 1010.97 1011.31 1011.48 1011.55 1011.60 1011.72 1011.96 1012.36 1012.90 1013.51 1014.14 1014.70 1015.13 1015.40 1015.51 1015.50 1015.43 1015.35 1015.30 1015.30 1015.37 1015.49 1015.62 1015.74 1015.82 1015.85 1015.85 1015.83 1015.85 1015.92 1016.09 1016.37 1016.75 1017.24 1017.81 1018.44 1019.08 1019.72 1020.33 1020.88
1009.22 1009.92 1010.61 1011.18 1011.57 1011.78 1011.88 1011.92 1012.02 1012.24 1012.60 1013.11 1013.70 1014.32 1014.89 1015.36 1015.67 1015.84 1015.88 1015.85 1015.78 1015.72 1015.70 1015.72 1015.78 1015.84 1015.89 1015.90 1015.88 1015.82 1015.77 1015.74 1015.78 1015.91 1016.15 1016.51 1016.98 1017.54 1018.17 1018.84 1019.52 1020.19 1020.80
1009.38 1010.10 1010.82 1011.42 1011.84 1012.08 1012.19 1012.24 1012.33 1012.52 1012.85 1013.31 1013.87 1014.47 1015.04 1015.52 1015.87 1016.08 1016.17 1016.18 1016.13 1016.08 1016.05 1016.05 1016.06 1016.08 1016.08 1016.06 1016.00 1015.92 1015.84 1015.80 1015.81 1015.92 1016.13 1016.46 1016.90 1017.43 1018.05 1018.72 1019.42 1020.12 1020.79
1009.60 1010.32 1011.04 1011.64 1012.07 1012.32 1012.44 1012.50 1012.58 1012.76 1013.06 1013.49 1014.01 1014.58 1015.14 1015.61 1015.98 1016.22 1016.34 1016.39 1016.38 1016.35 1016.33 1016.32 1016.33 1016.33 1016.32 1016.29 1016.23 1016.15 1016.07 1016.03 1016.04 1016.13 1016.31 1016.61 1017.01 1017.52 1018.11 1018.77 1019.48 1020.19 1020.90
1009.84 1010.53 1011.22 1011.79 1012.20 1012.46 1012.59 1012.66 1012.76 1012.93 1013.22 1013.63 1014.12 1014.66 1015.19 1015.65 1016.01 1016.27 1016.42 1016.50 1016.53 1016.54 1016.54 1016.56 1016.58 1016.60 1016.61 1016.59 1016.55 1016.50 1016.44 1016.41 1016.43 1016.52 1016.69 1016.96 1017.33 1017.80 1018.37 1019.00 1019.70 1020.42 1021.14
1010.03 1010.68 1011.31 1011.84 1012.23 1012.48 1012.62 1012.73 1012.86 1013.06 1013.36 1013.76 1014.24 1014.75 1015.24 1015.68 1016.03 1016.29 1016.46 1016.57 1016.64 1016.69 1016.74 1016.80 1016.85 1016.91 1016.95 1016.96 1016.96 1016.93 1016.91 1016.91 1016.94 1017.03 1017.20 1017.45 1017.80 1018.23 1018.76 1019.37 1020.04 1020.75 1021.47
1010.13 1010.74 1011.31 1011.78 1012.14 1012.38 1012.56 1012.72 1012.90 1013.16 1013.50 1013.92 1014.39 1014.88 1015.34 1015.76 1016.09 1016.35 1016.54 1016.67 1016.78 1016.87 1016.97 1017.07 1017.17 1017.26 1017.34 1017.39 1017.42 1017.43 1017.44 1017.47 1017.52 1017.62 1017.79 1018.03 1018.35 1018.75 1019.24 1019.81 1020.44 1021.11 1021.80
1010.13 1010.68 1011.18 1011.60 1011.93 1012.19 1012.42 1012.64 1012.91 1013.25 1013.65 1014.10 1014.59 1015.07 1015.52 1015.91 1016.23 1016.48 1016.68 1016.84 1016.98 1017.11 1017.25 1017.40 1017.54 1017.66 1017.77 1017.86 1017.91 1017.96 1017.99 1018.04 1018.12 1018.23 1018.39 1018.62 1018.92 1019.29 1019.73 1020.25 1020.82 1021.44 1022.08
1009.98 1010.47 1010.92 1011.30 1011.62 1011.91 1012.20 1012.52 1012.89 1013.32 1013.80 1014.31 1014.83 1015.32 1015.76 1016.13 1016.44 1016.69 1016.89 1017.08 1017.25 1017.42 1017.60 1017.78 1017.95 1018.11 1018.24 1018.34 1018.41 1018.47 1018.53 1018.60 1018.68 1018.81 1018.98 1019.19 1019.47 1019.80 1020.20 1020.65 1021.15 1021.70 1022.27
1009.68 1010.13 1010.52 1010.88 1011.21 1011.55 1011.92 1012.34 1012.82 1013.35 1013.92 1014.49 1015.04 1015.55 1015.99 1016.36 1016.67 1016.92 1017.15 1017.35 1017.56 1017.77 1017.99 1018.19 1018.39 1018.56 1018.70 1018.81 1018.89 1018.96 1019.03 1019.11 1019.21 1019.34 1019.51 1019.72 1019.98 1020.28 1020.61 1021.00 1021.42 1021.88 1022.36
1009.23 1009.64 1010.01 1010.36 1010.73 1011.12 1011.58 1012.10 1012.68 1013.31 1013.96 1014.59 1015.18 1015.70 1016.16 1016.53 1016.85 1017.13 1017.38 1017.62 1017.87 1018.12 1018.36 1018.60 1018.81 1018.99 1019.14 1019.25 1019.33 1019.40 1019.48 1019.57 1019.69 1019.83 1020.01 1020.22 1020.46 1020.72 1021.01 1021.32 1021.65 1022.02 1022.40
1008.65 1009.04 1009.40 1009.77 1010.18 1010.64 1011.18 1011.79 1012.47 1013.18 1013.89 1014.56 1015.19 1015.73 1016.20 1016.60 1016.94 1017.24 1017.54 1017.82 1018.12 1018.42 1018.70 1018.97 1019.20 1019.39 1019.53 1019.64 1019.72 1019.80 1019.89 1019.99 1020.12 1020.29 1020.48 1020.69 1020.92 1021.15 1021.39 1021.64 1021.90 1022.18 1022.47
1007.98 1008.37 1008.75 1009.16 1009.62 1010.15 1010.76 1011.45 1012.19 1012.96 1013.71 1014.41 1015.06 1015.62 1016.11 1016.53 1016.91 1017.26 1017.60 1017.95 1018.30 1018.65 1018.98 1019.28 1019.53 1019.73 1019.88 1019.99 1020.08 1020.16 1020.26 1020.38 1020.54 1020.72 1020.93 1021.15 1021.38 1021.60 1021.81 1022.01 1022.21 1022.41 1022.62
1007.30 1007.71 1008.12 1008.58 1009.09 1009.69 1010.37 1011.11 1011.90 1012.69 1013.46 1014.18 1014.83 1015.41 1015.92 1016.37 1016.79 1017.20 1017.61 1018.02 1018.44 1018.84 1019.21 1019.54 1019.81 1020.03 1020.19 1020.31 1020.40 1020.50 1020.61 1020.76 1020.94 1021.14 1021.37 1021.61 1021.84 1022.06 1022.25 1022.42 1022.58 1022.74 1022.91
1006.68 1007.12 1007.58 1008.09 1008.67 1009.33 1010.06 1010.84 1011.65 1012.45 1013.22 1013.94 1014.59 1015.18 1015.70 1016.20 1016.67 1017.13 1017.61 1018.08 1018.56 1019.01 1019.43 1019.78 1020.08 1020.31 1020.48 1020.60 1020.71 1020.82 1020.95 1021.12 1021.32 1021.55 1021.80 1022.05 1022.30 1022.52 1022.71 1022.87 1023.02 1023.16 1023.30
1006.17 1006.65 1007.17 1007.75 1008.39 1009.09 1009.86 1010.66 1011.48 1012.28 1013.05 1013.75 1014.41 1015.00 1015.55 1016.08 1016.60 1017.13 1017.66 1018.19 1018.72 1019.21 1019.66 1020.04 1020.34 1020.58 1020.76 1020.89 1021.01 1021.13 1021.28 1021.46 1021.68 1021.93 1022.20 1022.46 1022.72 1022.95 1023.14 1023.31 1023.46 1023.61 1023.75
1005.80 1006.33 1006.91 1007.54 1008.24 1008.99 1009.79 1010.60 1011.42 1012.22 1012.97 1013.68 1014.33 1014.94 1015.52 1016.09 1016.66 1017.23 1017.81 1018.39 1018.94 1019.46 1019.92 1020.31 1020.62 1020.85 1021.03 1021.17 1021.30 1021.43 1021.59 1021.78 1022.01 1022.27 1022.54 1022.81 1023.08 1023.31 1023.52 1023.71 1023.87 1024.04 1024.20
1005.55 1006.13 1006.76 1007.45 1008.19 1008.98 1009.80 1010.63 1011.45 1012.24 1013.00 1013.70 1014.37 1015.01 1015.62 1016.23 1016.84 1017.45 1018.06 1018.66 1019.23 1019.75 1020.21 1020.59 1020.89 1021.12 1021.29 1021.43 1021.56 1021.70 1021.86 1022.06 1022.29 1022.55 1022.82 1023.10 1023.36 1023.60 1023.82 1024.01 1024.20 1024.38 1024.57
1005.39 1006.00 1006.67 1007.40 1008.18 1008.99 1009.83 1010.67 1011.50 1012.29 1013.06 1013.78 1014.48 1015.15 1015.80 1016.45 1017.10 1017.74 1018.38 1018.98 1019.55 1020.06 1020.49 1020.85 1021.13 1021.34 1021.51 1021.65 1021.78 1021.93 1022.10 1022.30 1022.53 1022.78 1023.05 1023.31 1023.56 1023.80 1024.01 1024.22 1024.42 1024.62 1024.82
1005.25 1005.88 1006.58 1007.32 1008.12 1008.94 1009.78 1010.63 1011.47 1012.28 1013.07 1013.82 1014.56 1015.28 1015.98 1016.67 1017.36 1018.03 1018.67 1019.27 1019.82 1020.30 1020.71 1021.04 1021.30 1021.50 1021.66 1021.80 1021.94 1022.09 1022.27 1022.48 1022.71 1022.96 1023.21 1023.46 1023.70 1023.92 1024.13 1024.33 1024.53 1024.73 1024.94
Thickness
5813 5814 5815 5814 5811 5808 5806 5804 5802 5801 5799 5795 5792 5789 5787 5787 5787 5787 5787 5786 5785 5783 5782 5779 5777 5775 5773 5771 5770 5768 5766 5764 5764 5760 5757 5759 5762 5762 5762 5762 5760 5759 5758
5809 5811 5812 5811 5809 5807 5805 5802 5801 5799 5798 5795 5792 5790 5788 5786 5785 5785 5785 5784 5783 5782 5780 5777 5775 5773 5771 5769 5767 5766 5763 5762 5762 5757 5751 5747 5750 5756 5760 5759 5758 5757 5756
5809 5809 5809 5809 5808 5805 5803 5803 5800 5798 5797 5795 5792 5789 5785 5783 5781 5780 5780 5781 5781 5780 5778 5776 5774 5771 5769 5766 5765 5764 5761 5758 5759 5760 5753 5744 5740 5746 5752 5754 5754 5754 5752
5812 5810 5808 5807 5806 5806 5805 5802 5800 5797 5795 5794 5789 5785 5779 5775 5776 5777 5777 5778 5778 5777 5776 5774 5772 5770 5768 5765 5764 5764 5762 5759 5756 5757 5757 5754 5751 5743 5740 5745 5749 5749 5748
5814 5811 5810 5808 5807 5806 5804 5801 5798 5796 5794 5792 5788 5783 5779 5776 5775 5775 5773 5773 5774 5774 5773 5771 5770 5768 5766 5764 5762 5761 5760 5758 5756 5754 5753 5751 5749 5747 5740 5735 5738 5741 5743
5815 5812 5810 5808 5805 5804 5802 5799 5795 5793 5792 5789 5786 5782 5778 5775 5772 5770 5769 5768 5769 5770 5769 5768 5766 5764 5763 5761 5760 5759 5758 5757 5755 5753 5751 5748 5745 5742 5739 5735 5733 5733 5735
5812 5809 5806 5804 5802 5800 5799 5796 5792 5789 5788 5786 5783 5781 5778 5774 5771 5769 5767 5765 5765 5764 5764 5764 5763 5761 5760 5759 5757 5756 5755 5754 5752 5750 5748 5748 5746 5745 5741 5736 5730 5728 5730
5811 5809 5806 5804 5801 5799 5796 5793 5789 5786 5785 5783 5781 5779 5776 5773 5770 5768 5766 5764 5763 5762 5762 5760 5759 5758 5757 5756 5754 5752 5751 5750 5748 5747 5745 5744 5744 5743 5741 5736 5729 5723 5722
5810 5808 5805 5803 5800 5797 5794 5792 5787 5784 5782 5780 5778 5775 5773 5771 5768 5766 5764 5762 5761 5760 5758 5757 5755 5753 5753 5752 5750 5748 5746 5745 5744 5742 5741 5740 5739 5739 5738 5736 5732 5724 5715
5808 5805 5803 5800 5798 5796 5793 5790 5786 5782 5779 5777 5775 5773 5769 5767 5765 5763 5761 5759 5757 5756 5753 5751 5750 5749 5748 5747 5745 5743 5742 5740 5739 5738 5736 5735 5735 5734 5733 5731 5729 5726 5719
5805 5803 5800 5798 5795 5792 5789 5786 5782 5779 5776 5773 5770 5767 5764 5762 5760 5758 5756 5755 5753 5751 5748 5747 5745 5744 5742 5741 5739 5738 5737 5735 5733 5732 5731 5730 5730 5728 5727 5725 5723 5720 5716
5803 5801 5797 5794 5791 5787 5784 5781 5778 5775 5772 5769 5765 5762 5759 5757 5755 5753 5752 5751 5748 5746 5744 5742 5740 5738 5736 5735 5734 5732 5731 5729 5727 5726 5725 5724 5724 5722 5720 5718 5716 5714 5712
5798 5795 5792 5789 5786 5783 5780 5777 5775 5771 5768 5765 5761 5757 5754 5752 5750 5748 5747 5745 5743 5741 5738 5736 5734 5732 5731 5730 5728 5727 5725 5723 5722 5720 5719 5718 5717 5715 5713 5711 5709 5707 5707
5793 5789 5785 5783 5781 5779 5776 5773 5770 5767 5764 5760 5756 5752 5749 5747 5745 5743 5742 5739 5738 5735 5733 5731 5729 5727 5726 5725 5723 5721 5719 5718 5716 5715 5713 5712 5711 5709 5707 5705 5702 5701 5698
5786 5784 5781 5777 5775 5772 5770 5768 5765 5762 5759 5754 5750 5747 5745 5743 5740 5738 5735 5733 5731 5729 5727 5725 5723 5722 5721 5720 5718 5716 5714 5712 5709 5708 5707 5706 5705 5704 5702 5700 5696 5694 5691
5782 5780 5777 5774 5770 5768 5765 5762 5759 5757 5754 5749 5746 5743 5740 5737 5735 5732 5729 5727 5724 5722 5720 5718 5716 5715 5715 5715 5713 5710 5707 5705 5702 5700 5699 5699 5698 5697 5695 5694 5692 5689 5685
5778 5775 5773 5771 5768 5765 5761 5756 5754 5751 5747 5744 5741 5738 5735 5732 5729 5727 5723 5720 5717 5715 5713 5711 5709 5708 5708 5707 5706 5704 5701 5698 5694 5692 5691 5691 5691 5688 5687 5685 5685 5683 5682
5773 5770 5768 5765 5763 5761 5757 5754 5749 5745 5741 5738 5735 5732 5729 5726 5723 5720 5717 5714 5711 5708 5706 5704 5702 5701 5700 5700 5698 5697 5694 5690 5688 5686 5684 5682 5681 5681 5679 5677 5675 5674 5674
5770 5767 5765 5762 5758 5755 5752 5747 5742 5739 5735 5731 5728 5726 5724 5720 5717 5713 5711 5708 5705 5701 5699 5697 5695 5692 5692 5692 5690 5688 5685 5682 5680 5678 5677 5675 5673 5673 5671 5668 5666 5665 5666
5765 5762 5759 5756 5751 5748 5745 5740 5734 5731 5727 5725 5723 5720 5717 5714 5710 5707 5704 5701 5698 5695 5692 5689 5688 5685 5684 5684 5682 5680 5676 5672 5670 5669 5668 5667 5665 5664 5662 5660 5658 5656 5657
5758 5755 5751 5747 5743 5741 5737 5730 5726 5723 5722 5720 5717 5714 5711 5708 5704 5701 5697 5693 5690 5687 5684 5681 5679 5678 5676 5675 5674 5671 5667 5664 5661 5660 5658 5658 5657 5656 5654 5653 5651 5651 5650
5748 5746 5741 5737 5735 5732 5728 5722 5718 5717 5715 5712 5709 5705 5703 5701 5698 5693 5689 5685 5681 5677 5674 5671 5669 5668 5667 5666 5664 5662 5660 5658 5654 5652 5651 5650 5649 5648 5647 5646 5646 5645 5643
5738 5736 5732 5727 5724 5722 5720 5714 5711 5709 5706 5703 5699 5696 5694 5691 5688 5684 5680 5676 5673 5668 5665 5662 5659 5658 5657 5656 5655 5654 5652 5650 5647 5645 5644 5643 5642 5640 5639 5639 5639 5637 5634
5727 5724 5721 5716 5713 5712 5711 5707 5704 5701 5698 5694 5691 5687 5684 5681 5679 5676 5673 5668 5664 5660 5657 5653 5650 5649 5648 5647 5646 5644 5643 5641 5639 5637 5636 5635 5634 5632 5632 5631 5630 5629 5627
5715 5713 5709 5705 5703 5702 5700 5698 5695 5693 5688 5684 5682 5678 5675 5672 5669 5667 5664 5662 5659 5655 5651 5647 5644 5641 5639 5640 5638 5635 5634 5633 5631 5628 5625 5624 5622 5622 5621 5621 5620 5620 5619
5704 5701 5699 5696 5693 5692 5690 5689 5687 5684 5680 5676 5673 5670 5667 5664 5660 5657 5654 5654 5651 5649 5645 5642 5638 5636 5634 5633 5631 5629 5628 5626 5624 5620 5617 5615 5614 5613 5612 5611 5611 5612 5611